Batman, Turkey

12:07 AM +03 on March 30, 2017 (GMT +0300)
Batman Air Base

Weather History for LTCJ - October, 2012

Change the Weather History Date:

Thursday, October 4, 2012

  Actual Average (LTCC) Record (LTCC)
Temperature  
Mean Temperature 76 °F -  
Max Temperature 93 °F 82 °F 89 °F (2007)
Min Temperature 60 °F 55 °F 48 °F (2011)
Cooling Degree Days 12    
Growing Degree Days 26 (Base 50)    
Moisture  
Dew Point 45 °F    
Average Humidity 37    
Maximum Humidity 63    
Minimum Humidity 14    
Precipitation  
Precipitation 0.00 in - - ()
Sea Level Pressure  
Sea Level Pressure 29.85 in    
Wind  
Wind Speed 6 mph ()    
Max Wind Speed 16 mph    
Max Gust Speed -    
Visibility 6.2 miles    
Events      
Averages and records for this station are not official NWS values.
T = Trace of Precipitation, MM = Missing Value Source: Averaged Metar Reports

Daily Weather History Graph

Daily Weather History Graph

Search for Another Location

Airport or City:

Trip Planner

Search our weather history database for the weather conditions in past years. The results will help you decide how hot, cold, wet, or windy it might be!

Date:

Astronomy

Oct. 04, 2012 Rise Set
Actual Time 6:13 AM EEST 5:53 PM EEST
Civil Twilight 5:47 AM EEST 6:19 PM EEST
Nautical Twilight 5:17 AM EEST 6:50 PM EEST
Astronomical Twilight 4:46 AM EEST 7:20 PM EEST
Moon 8:17 PM EEST (10/4) 10:07 AM EEST (10/4)
Length of Visible Light 12h 32m
Length of Day
11h 39m
Waning Gibbous, 84% of the Moon is Illuminated
Oct 4
Waning Gibbous
Oct 8
Last Quarter
Oct 15
New
Oct 22
First Quarter
Oct 29
Full

Hourly Weather History & Observations

Time (EEST) Temp. Dew Point Humidity Pressure Visibility Wind Dir Wind Speed Gust Speed Precip Events Conditions
12:20 AM 75.2 °F 46.4 °F 36% 29.92 in - ENE 8.1 mph - N/A   Clear
12:50 AM 75.2 °F 44.6 °F 34% 29.92 in - Variable 3.5 mph - N/A   Clear
1:20 AM 75.2 °F 44.6 °F 34% 29.92 in - NE 8.1 mph - N/A   Clear
1:50 AM 73.4 °F 44.6 °F 36% 29.92 in 6.2 mi NNE 6.9 mph - N/A   Partly Cloudy
2:20 AM 69.8 °F 46.4 °F 43% 29.92 in 6.2 mi NNE 6.9 mph - N/A   Partly Cloudy
3:20 AM 66.2 °F 46.4 °F 49% 29.89 in - NNE 8.1 mph - N/A   Clear
3:50 AM 68.0 °F 46.4 °F 46% 29.89 in - West 4.6 mph - N/A   Clear
4:20 AM 62.6 °F 48.2 °F 59% 29.92 in - SSW 5.8 mph - N/A   Clear
4:50 AM 60.8 °F 48.2 °F 63% 29.89 in - Variable 2.3 mph - N/A   Clear
5:20 AM 62.6 °F 48.2 °F 59% 29.89 in 6.2 mi SSE 3.5 mph - N/A   Partly Cloudy
5:50 AM 60.8 °F 48.2 °F 63% 29.89 in 6.2 mi Variable 2.3 mph - N/A   Partly Cloudy
6:20 AM 60.8 °F 48.2 °F 63% 29.89 in 6.2 mi Variable 1.2 mph - N/A   Partly Cloudy
6:50 AM 60.8 °F 48.2 °F 63% 29.89 in 6.2 mi Variable 1.2 mph - N/A   Scattered Clouds
7:20 AM 62.6 °F 48.2 °F 59% 29.89 in 6.2 mi Variable 2.3 mph - N/A   Scattered Clouds
7:50 AM 64.4 °F 48.2 °F 56% 29.89 in 6.2 mi SSW 3.5 mph - N/A   Scattered Clouds
8:20 AM 66.2 °F 48.2 °F 52% 29.89 in 6.2 mi Variable 1.2 mph - N/A   Scattered Clouds
8:50 AM 69.8 °F 48.2 °F 46% 29.89 in 6.2 mi Variable 1.2 mph - N/A   Scattered Clouds
9:20 AM 73.4 °F 46.4 °F 38% 29.89 in 6.2 mi Variable 2.3 mph - N/A   Scattered Clouds
9:50 AM 77.0 °F 46.4 °F 34% 29.89 in 6.2 mi Calm Calm - N/A   Mostly Cloudy
10:20 AM 82.4 °F 46.4 °F 28% 29.86 in 6.2 mi Variable 2.3 mph - N/A   Mostly Cloudy
10:50 AM 87.8 °F 44.6 °F 22% 29.86 in 6.2 mi Variable 1.2 mph - N/A   Mostly Cloudy
11:20 AM 89.6 °F 42.8 °F 20% 29.86 in 6.2 mi Variable 2.3 mph - N/A   Mostly Cloudy
11:50 AM 93.2 °F 41.0 °F 16% 29.83 in 6.2 mi Variable 3.5 mph - N/A   Mostly Cloudy
12:20 PM 91.4 °F 39.2 °F 16% 29.83 in 6.2 mi Variable 4.6 mph - N/A   Mostly Cloudy
12:50 PM 91.4 °F 39.2 °F 16% 29.83 in 6.2 mi SW 9.2 mph - N/A   Mostly Cloudy
1:20 PM 93.2 °F 37.4 °F 14% 29.80 in 6.2 mi South 16.1 mph - N/A   Mostly Cloudy
1:50 PM 93.2 °F 37.4 °F 14% 29.80 in 6.2 mi South 15.0 mph - N/A   Mostly Cloudy
2:20 PM 93.2 °F 37.4 °F 14% 29.80 in 6.2 mi South 15.0 mph - N/A   Mostly Cloudy
2:50 PM 91.4 °F 39.2 °F 16% 29.77 in 6.2 mi South 15.0 mph - N/A   Mostly Cloudy
3:20 PM 91.4 °F 39.2 °F 16% 29.77 in 6.2 mi SSW 15.0 mph - N/A   Mostly Cloudy
3:50 PM 89.6 °F 39.2 °F 17% 29.77 in 6.2 mi SSW 16.1 mph - N/A   Mostly Cloudy
4:20 PM 87.8 °F 42.8 °F 21% 29.77 in 6.2 mi SW 13.8 mph - N/A   Mostly Cloudy
4:50 PM 87.8 °F 39.2 °F 18% 29.77 in 6.2 mi SW 15.0 mph - N/A   Mostly Cloudy
5:20 PM 86.0 °F 42.8 °F 22% 29.77 in 6.2 mi SW 13.8 mph - N/A   Scattered Clouds
5:50 PM 82.4 °F 44.6 °F 26% 29.77 in 6.2 mi SSW 11.5 mph - N/A   Scattered Clouds
6:20 PM 80.6 °F 44.6 °F 28% 29.80 in 6.2 mi SSW 9.2 mph - N/A   Scattered Clouds
6:50 PM 77.0 °F 44.6 °F 32% 29.80 in 6.2 mi SSW 9.2 mph - N/A   Partly Cloudy
7:20 PM 78.8 °F 46.4 °F 32% 29.80 in - SSW 10.4 mph - N/A   Clear
7:50 PM 75.2 °F 48.2 °F 38% 29.83 in - WSW 4.6 mph - N/A   Clear
8:20 PM 73.4 °F 48.2 °F 41% 29.83 in - West 5.8 mph - N/A   Clear
8:50 PM 71.6 °F 48.2 °F 43% 29.83 in - Calm Calm - N/A   Clear
9:20 PM 71.6 °F 50.0 °F 46% 29.83 in - WNW 2.3 mph - N/A   Clear
9:50 PM 71.6 °F 48.2 °F 43% 29.86 in - West 3.5 mph - N/A   Clear
10:20 PM 69.8 °F 48.2 °F 46% 29.86 in - WSW 4.6 mph - N/A   Clear
10:50 PM 69.8 °F 48.2 °F 46% 29.86 in - Calm Calm - N/A   Clear
11:20 PM 64.4 °F 46.4 °F 52% 29.86 in - NE 3.5 mph - N/A   Clear
11:50 PM 62.6 °F 48.2 °F 59% 29.86 in - NNE 8.1 mph - N/A   Clear